TITAN 3A TRANSTAGE R/B, 1001

Orbit data source: Space-Track

TITAN 3A TRANSTAGE R/B, 1001 is space debris in LEO originally from a launch on Thu, 11 Feb 1965 UTC via a TITAN IIIA launch vehicle from the Air Force Eastern Test Range (AFETR). Debris objects in space refer to the collection of defunct objects orbiting the Earth. Examples of debris include non-operational satellites, rocket bodies, and fragments generated from explosions, collisions, or faulty payload assembly.

Loading next visibility...
Identifier
1001, 1965-008A
Orbit
LEO
Country
Flag of USUS
Related business
Manufacturer
Martin Marietta
Mission
Spacecraft
Bus & Motor
TRUSS, Unknown motor
Mass
336 kg wet, 336 kg dry
Launch date (UTC)
1965-02-11 (61 years ago)
Launch vehicle
TITAN IIIA
Launch site
Air Force Eastern Test Range (AFETR)
Object type
Payload
Rocket body
Debris
Shape & HBR
Unknown
Radar Cross Section
Large (>1 m²)

Expand to show TLE details & history
Last TLE update: 23 hours ago

TLE from 23 hours ago
0 TITAN 3A TRANSTAGE R/B
1 01001U 65008A   26037.10252520  .00000002  00000-0 -75884-3 0  9994
2 01001  32.1483  59.9492 0017604 148.0225 212.1343  9.90721994208470
Epoch: 2026-02-06T02:27Z
TLE epoch observation values (Epoch: 2026-02-06T02:27:38.177Z)
Latitude
-0.00004°
Longitude
-113.20515°
Altitude
2,791.777 km
Speed
6.59 km/s
True Right ascension
03h 59m 47s
True Declination
0° 00' 00"
Sunlit
Object was in daylight at epoch
Visualization orbit readout
Latitude
Unknown
Longitude
Unknown
Altitude
Unknown
Speed
Unknown
Apparent Right ascension
Unknown
Apparent Declination
Unknown
Sunlit
N/A
Visualization observer readout
Local Sidereal Time
03:07:45
Azimuth
Unknown
Elevation
Unknown
Doppler factor
Unknown
Orbital elements
Apogee altitude
2,798.059 km
Perigee altitude
2,765.808 km
Semi-major axis
9,160.07 km
Eccentricity
0.00176
Inclination
32.1483°
RAAN
59.9492°
Arg. of periapsis
148.0225°
True anomaly
212.0272°
Mean anomaly
212.1343°
Eccentric anomaly
212.08073°
Mean motion
2.47568 °/min
Orbital period
145.41 mins
BSTAR
-0.00075884
Loading maneuver chart data...
Computing Atmospheric mass density...
Loading historical data...
Loading historical data...
Loading historical data...
Loading historical data...
Loading historical data...
Loading historical data...
Loading historical data...
Other satellites on launch #8 in the year 1965 (1965-02-11 UTC)

Documentation

Showing up to 5 results
|